TimeEDT,TemperatureF,Dew PointF,Humidity,Sea Level PressureIn,VisibilityMPH,Wind Direction,Wind SpeedMPH,Gust SpeedMPH,PrecipitationIn,Events,Conditions,WindDirDegrees,DateUTC
12:56 AM,57.9,54.0,87,30.17,10.0,Calm,Calm,-,N/A,,Clear,0,2013-06-20 04:56:00
1:56 AM,59.0,54.0,83,30.19,10.0,Calm,Calm,-,N/A,,Clear,0,2013-06-20 05:56:00
2:56 AM,57.0,54.0,89,30.18,10.0,Calm,Calm,-,N/A,,Clear,0,2013-06-20 06:56:00
3:56 AM,57.0,54.0,89,30.19,10.0,Calm,Calm,-,N/A,,Clear,0,2013-06-20 07:56:00
4:56 AM,55.9,52.0,87,30.20,10.0,Calm,Calm,-,N/A,,Partly Cloudy,0,2013-06-20 08:56:00
5:56 AM,57.0,53.1,87,30.22,10.0,Calm,Calm,-,N/A,,Clear,0,2013-06-20 09:56:00
6:56 AM,61.0,54.0,78,30.24,10.0,Calm,Calm,-,N/A,,Clear,0,2013-06-20 10:56:00
7:56 AM,64.0,54.0,70,30.25,10.0,Calm,Calm,-,N/A,,Clear,0,2013-06-20 11:56:00
8:56 AM,66.0,54.0,65,30.25,10.0,Variable,3.5,-,N/A,,Clear,0,2013-06-20 12:56:00
9:56 AM,70.0,55.0,59,30.25,10.0,Variable,5.8,-,N/A,,Clear,0,2013-06-20 13:56:00
10:56 AM,72.0,51.1,48,30.26,10.0,Variable,4.6,-,N/A,,Clear,0,2013-06-20 14:56:00
11:56 AM,73.9,51.1,45,30.26,10.0,Calm,Calm,-,N/A,,Clear,0,2013-06-20 15:56:00
12:56 PM,75.9,50.0,40,30.25,10.0,Variable,5.8,-,N/A,,Scattered Clouds,0,2013-06-20 16:56:00
1:56 PM,75.0,52.0,44,30.24,10.0,Calm,Calm,-,N/A,,Mostly Cloudy,0,2013-06-20 17:56:00
2:56 PM,77.0,55.0,47,30.23,10.0,Variable,6.9,-,N/A,,Mostly Cloudy,0,2013-06-20 18:56:00
3:56 PM,75.9,54.0,46,30.23,10.0,South,10.4,-,N/A,,Scattered Clouds,180,2013-06-20 19:56:00
4:56 PM,75.0,53.1,46,30.22,10.0,SSE,9.2,-,N/A,,Partly Cloudy,160,2013-06-20 20:56:00
5:56 PM,73.9,54.0,50,30.22,10.0,South,10.4,-,N/A,,Partly Cloudy,170,2013-06-20 21:56:00
6:56 PM,72.0,53.1,51,30.23,10.0,South,8.1,-,N/A,,Clear,170,2013-06-20 22:56:00
7:56 PM,69.1,52.0,54,30.24,10.0,SSE,8.1,-,N/A,,Clear,160,2013-06-20 23:56:00
8:56 PM,66.9,51.1,57,30.24,10.0,South,6.9,-,N/A,,Clear,170,2013-06-21 00:56:00
9:56 PM,64.9,52.0,63,30.25,10.0,SSE,5.8,-,N/A,,Clear,150,2013-06-21 01:56:00
10:56 PM,63.0,52.0,67,30.25,10.0,SSE,5.8,-,N/A,,Clear,160,2013-06-21 02:56:00
11:56 PM,63.0,53.1,70,30.25,10.0,South,4.6,-,N/A,,Clear,170,2013-06-21 03:56:00